WZZ24K EPKK-EPGD

Flight info

Callsign WZZ24K
Flight time N/A
Altitude 34000
Route NAVUR N744 OVBOR N133 GRUDA Z95 OSLOG
Aircraft A20N/M-SDE2E3FGHIRWXY/LB1

Departure

Time 2026-05-03 20:25
Airport Kraków John Paul II International Airport (EPKK)

Arrival

Time N/A
Airport Gdańsk Lech Wałęsa Airport (EPGD)
Time Latitude Longitude Altitude Speed Heading
2026-05-03 20:15 50.07498 19.80275 789 ft 0 kts 168°
2026-05-03 20:22 50.07473 19.80283 788 ft 7 kts 168°
2026-05-03 20:23 50.07450 19.80332 788 ft 7 kts 84°
2026-05-03 20:23 50.07512 19.80398 788 ft 16 kts 18°
2026-05-03 20:23 50.07634 19.80408 789 ft 20 kts 348°
2026-05-03 20:23 50.07777 19.80359 789 ft 22 kts 347°
2026-05-03 20:24 50.07933 19.80304 788 ft 23 kts 347°
2026-05-03 20:24 50.08020 19.80251 788 ft 5 kts 288°
2026-05-03 20:24 50.08015 19.80219 788 ft 0 kts 256°
2026-05-03 20:25 50.07965 19.79862 787 ft 82 kts 258°
2026-05-03 20:25 50.07784 19.78551 794 ft 160 kts 258°
2026-05-03 20:25 50.07553 19.76818 1629 ft 162 kts 258°
2026-05-03 20:25 50.07317 19.75097 2655 ft 167 kts 256°
2026-05-03 20:26 50.07056 19.73250 3543 ft 183 kts 256°
2026-05-03 20:26 50.06759 19.71191 4106 ft 207 kts 256°
2026-05-03 20:26 50.06425 19.68843 4632 ft 234 kts 257°
2026-05-03 20:26 50.06471 19.66272 5462 ft 249 kts 285°
2026-05-03 20:27 50.07367 19.63945 6509 ft 257 kts 315°
2026-05-03 20:27 50.08914 19.62517 7496 ft 264 kts 342°
2026-05-03 20:27 50.10745 19.61826 8274 ft 282 kts 348°
2026-05-03 20:27 50.12745 19.61407 9050 ft 295 kts
2026-05-03 20:28 50.14730 19.62213 10072 ft 299 kts 29°
2026-05-03 20:28 50.16467 19.64133 10780 ft 315 kts 35°
2026-05-03 20:28 50.18537 19.65585 11181 ft 340 kts 13°
2026-05-03 20:28 50.20910 19.65733 11825 ft 351 kts 351°
2026-05-03 20:29 50.23306 19.64893 12803 ft 354 kts 345°
2026-05-03 20:29 50.25702 19.63901 13759 ft 358 kts 345°
2026-05-03 20:29 50.28138 19.63027 14624 ft 361 kts 348°
2026-05-03 20:29 50.30629 19.62288 15486 ft 365 kts 349°
2026-05-03 20:30 50.32297 19.61851 16050 ft 367 kts 350°
2026-05-03 20:30 50.34832 19.61236 16886 ft 370 kts 351°
2026-05-03 20:30 50.38242 19.60444 17989 ft 375 kts 351°
2026-05-03 20:30 50.40834 19.59846 18762 ft 378 kts 351°
2026-05-03 20:31 50.42568 19.59444 19244 ft 380 kts 351°
2026-05-03 20:31 50.45200 19.58832 19956 ft 383 kts 351°
2026-05-03 20:31 50.47854 19.58212 20657 ft 387 kts 351°
2026-05-03 20:31 50.50535 19.57584 21362 ft 390 kts 351°
2026-05-03 20:32 50.53237 19.56949 22077 ft 393 kts 351°
2026-05-03 20:32 50.56848 19.56101 22982 ft 398 kts 351°
2026-05-03 20:32 50.58706 19.55664 23434 ft 400 kts 351°
2026-05-03 20:32 50.61434 19.55021 24025 ft 403 kts 349°
2026-05-03 20:33 50.64202 19.54169 24587 ft 406 kts 347°
2026-05-03 20:33 50.66967 19.53181 25164 ft 408 kts 346°
2026-05-03 20:33 50.69753 19.52187 25696 ft 411 kts 347°
2026-05-03 20:33 50.72563 19.51221 26220 ft 414 kts 347°
2026-05-03 20:34 50.75384 19.50281 26748 ft 417 kts 347°
2026-05-03 20:34 50.78243 19.49347 27252 ft 420 kts 348°
2026-05-03 20:34 50.81120 19.48413 27738 ft 423 kts 348°
2026-05-03 20:34 50.84018 19.47473 28211 ft 426 kts 348°
2026-05-03 20:35 50.86930 19.46527 28681 ft 428 kts 348°
2026-05-03 20:35 50.89862 19.45573 29140 ft 431 kts 348°
2026-05-03 20:35 50.92783 19.44621 29553 ft 434 kts 348°
2026-05-03 20:35 50.95783 19.43641 29986 ft 436 kts 348°
2026-05-03 20:36 50.98734 19.42677 30358 ft 439 kts 348°
2026-05-03 20:36 51.01736 19.41694 30747 ft 441 kts 348°
2026-05-03 20:36 51.04752 19.40706 31126 ft 443 kts 348°
2026-05-03 20:36 51.07777 19.39713 31531 ft 443 kts 348°
2026-05-03 20:37 51.10791 19.38723 31715 ft 441 kts 348°
2026-05-03 20:37 51.16768 19.36755 31722 ft 440 kts 348°
2026-05-03 20:38 51.22792 19.34766 32184 ft 442 kts 348°
2026-05-03 20:38 51.25773 19.33780 32703 ft 440 kts 348°
2026-05-03 20:38 51.28773 19.32786 33203 ft 439 kts 348°
2026-05-03 20:38 51.31773 19.31791 33684 ft 437 kts 348°
2026-05-03 20:39 51.34750 19.30803 33979 ft 436 kts 348°
2026-05-03 20:39 51.40645 19.28841 34020 ft 434 kts 348°
2026-05-03 20:40 51.46582 19.26860 34023 ft 434 kts 348°
2026-05-03 20:40 51.52471 19.24889 34018 ft 434 kts 348°
2026-05-03 20:41 51.58394 19.22902 34018 ft 434 kts 348°
2026-05-03 20:41 51.64321 19.20909 34021 ft 434 kts 348°
2026-05-03 20:42 51.70218 19.18920 34018 ft 435 kts 348°
2026-05-03 20:42 51.76167 19.16909 34018 ft 435 kts 348°
2026-05-03 20:43 51.82062 19.14910 34015 ft 435 kts 348°
2026-05-03 20:43 51.88007 19.12890 34011 ft 435 kts 348°
2026-05-03 20:44 51.93908 19.10879 34001 ft 435 kts 348°
2026-05-03 20:44 51.99803 19.08864 33994 ft 435 kts 348°
2026-05-03 20:45 52.05742 19.06828 33994 ft 435 kts 348°
2026-05-03 20:45 52.11663 19.04907 33988 ft 435 kts 348°
2026-05-03 20:46 52.17605 19.02879 33989 ft 435 kts 349°
2026-05-03 20:46 52.23503 19.00856 33985 ft 435 kts 347°
2026-05-03 20:47 52.29417 18.98819 33987 ft 435 kts 348°
2026-05-03 20:47 52.35356 18.96889 33975 ft 435 kts 348°
2026-05-03 20:48 52.41279 18.94990 33973 ft 435 kts 348°
2026-05-03 20:48 52.47232 18.93076 33965 ft 435 kts 348°
2026-05-03 20:49 52.53194 18.91152 33965 ft 436 kts 348°
2026-05-03 20:49 52.59123 18.89233 33962 ft 436 kts 348°
2026-05-03 20:50 52.65086 18.87298 33957 ft 437 kts 348°
2026-05-03 20:50 52.71064 18.85353 33949 ft 437 kts 348°
2026-05-03 20:50 52.74036 18.84384 33687 ft 434 kts 348°
2026-05-03 20:51 52.76966 18.83427 33023 ft 435 kts 347°
2026-05-03 20:51 52.79950 18.82451 32148 ft 437 kts 347°
2026-05-03 20:51 52.82939 18.81472 31202 ft 442 kts 347°
2026-05-03 20:51 52.84955 18.80811 30563 ft 445 kts 347°
2026-05-03 20:52 52.86981 18.80146 29979 ft 446 kts 347°